Wind_Speed
67 71 74 77 79 79 76 71 64 55 50 49 48 47 45 43 41 40 39 38 37 37 36 35 33 32 31 30 31 32 32 31 28 25 24 24 23 22 22 22 22 22 22
73 76 78 78 76 71 63 55 48 45 43 42 41 40 39 37 37 36 36 35 35 34 32 31 29 28 28 28 29 28 28 27 26 21 19 19 18 17 17 17 16 16 17
76 76 75 70 63 55 48 42 40 38 37 36 36 35 35 35 35 34 33 32 31 30 28 27 25 25 25 25 24 24 24 23 22 18 16 17 16 16 15 14 14 15 15
71 66 60 52 45 40 36 34 33 31 31 32 32 32 32 31 31 30 29 27 26 24 22 21 20 20 20 21 22 22 21 19 16 14 15 15 15 15 15 14 14 13 14
55 48 41 35 31 28 27 26 26 27 28 28 28 27 27 26 25 25 24 22 20 18 16 15 15 16 17 18 18 17 15 13 11 12 13 13 15 16 15 14 14 14 15
38 32 27 24 22 21 22 23 24 25 26 26 26 26 25 24 24 22 21 19 16 15 14 13 13 13 14 15 15 12 9 7 7 9 11 12 14 16 15 13 12 12 14
26 22 20 19 19 20 22 23 24 26 28 28 28 27 26 25 24 22 20 18 16 14 13 13 12 13 13 13 12 7 5 4 5 7 10 12 14 14 13 12 12 12 13
18 18 18 19 21 23 24 26 28 29 29 29 28 27 26 25 24 22 20 18 15 13 13 13 13 12 11 11 9 4 2 5 7 10 12 14 15 14 12 12 13 13 13
16 18 20 22 24 26 28 29 29 30 30 30 29 28 27 25 24 23 21 19 17 15 13 12 12 11 9 8 6 3 4 7 10 12 14 15 16 14 13 12 13 14 14
17 20 22 25 27 29 30 31 32 33 32 31 30 28 26 25 23 22 21 20 17 15 13 12 10 9 6 5 2 2 5 9 11 13 15 17 16 15 15 15 15 15 15
18 21 24 27 29 32 34 34 35 34 33 32 30 28 25 22 20 19 20 19 18 16 13 11 8 6 3 4 5 5 7 10 11 13 15 16 17 18 17 16 16 16 16
20 23 26 29 32 35 36 35 34 33 31 30 28 25 23 20 18 16 15 16 15 14 13 11 8 4 3 7 8 8 9 11 12 13 14 15 16 19 18 18 18 18 19
22 25 29 32 35 38 38 36 34 32 30 28 25 23 20 20 19 16 13 12 11 11 12 12 11 7 6 10 11 11 12 12 13 14 14 16 18 19 18 19 20 19 19
23 27 31 35 38 40 40 38 35 32 30 27 25 22 20 19 20 19 17 13 10 9 10 13 14 12 10 12 14 14 14 14 14 15 15 17 20 20 20 20 20 19 17
24 28 32 36 39 40 40 39 36 32 30 28 26 23 21 20 19 18 17 14 10 7 8 12 16 17 15 15 16 17 16 16 16 16 18 19 20 22 22 22 21 19 16
24 28 32 35 38 40 40 39 36 33 31 30 28 26 23 21 19 18 15 13 9 6 6 10 16 19 19 17 18 18 18 17 17 18 19 20 22 23 23 22 21 18 15
25 28 32 35 37 38 39 39 38 35 33 32 30 28 25 22 20 18 15 11 6 5 5 7 13 20 21 20 19 18 18 17 17 19 21 22 24 24 23 22 20 17 15
25 28 31 34 36 38 38 38 38 37 35 34 31 28 25 23 21 18 15 11 3 4 5 5 10 17 22 22 20 18 17 17 17 19 22 24 26 25 24 22 19 17 16
26 29 32 34 36 38 38 39 39 38 36 34 31 28 26 23 21 18 16 12 6 4 5 5 7 14 21 23 22 20 18 17 18 19 21 24 26 26 24 22 20 18 19
27 30 33 35 37 38 39 39 39 39 37 35 31 28 26 23 21 18 15 12 9 6 5 4 5 10 18 23 23 22 20 19 19 19 21 23 24 25 24 22 21 21 23
28 32 35 37 38 39 39 40 40 40 39 37 34 30 27 24 20 18 15 11 9 7 6 4 4 9 16 22 24 24 23 21 21 21 21 22 23 24 23 23 23 25 26
30 34 37 38 39 39 40 40 41 41 41 39 36 32 29 25 21 18 16 12 8 6 5 5 5 8 14 20 23 24 24 23 22 22 22 23 24 25 25 25 25 26 26
31 34 37 39 40 40 40 40 41 41 42 40 38 35 32 28 24 21 18 15 12 9 6 6 6 8 12 18 22 24 24 24 23 22 22 23 24 24 25 25 26 26 26
31 34 37 39 39 40 40 40 41 42 42 42 39 36 34 32 29 26 22 18 15 12 10 9 9 9 11 16 19 22 23 24 23 23 22 23 23 24 24 25 26 27 27
30 33 36 38 39 40 40 40 41 41 42 43 41 38 36 34 32 31 28 23 20 17 14 12 11 11 12 14 17 19 20 21 21 21 21 22 23 24 24 25 25 26 26
30 33 36 37 38 39 39 40 40 41 42 43 43 41 38 36 35 34 33 30 25 22 19 17 15 14 14 15 16 17 18 18 18 18 18 20 21 23 23 24 24 25 25
Wind_Direction
296 296 297 297 298 299 300 300 300 299 298 298 299 300 301 301 301 301 300 299 299 297 296 294 293 290 289 289 289 288 286 286 286 281 274 267 265 261 258 256 256 252 248
299 299 300 300 300 301 301 301 299 299 300 301 303 303 304 304 304 304 302 301 300 299 297 296 295 293 292 292 291 290 287 286 285 278 264 259 255 250 248 247 245 241 238
301 301 301 301 301 301 300 299 300 301 303 306 308 308 307 307 307 306 305 304 303 300 297 296 296 296 297 295 294 293 289 285 280 270 252 246 243 240 238 235 233 232 232
304 303 303 303 302 301 300 301 303 306 310 312 314 313 312 311 310 310 308 307 307 304 301 298 297 298 300 299 298 295 290 283 272 254 240 238 235 229 223 224 226 230 231
307 307 307 307 306 305 305 308 312 315 318 319 320 321 320 318 317 316 313 310 311 311 307 304 302 303 307 307 303 298 291 279 258 239 230 226 221 216 216 218 222 227 227
314 315 316 316 316 316 317 319 320 321 321 321 321 320 319 319 319 319 318 313 311 311 310 309 308 311 311 314 311 302 288 268 242 225 217 212 207 202 205 208 213 214 212
323 327 330 331 330 328 326 324 323 320 318 316 315 313 312 310 311 313 315 312 309 305 304 306 308 310 310 315 318 303 278 237 199 188 186 183 183 184 189 196 198 195 194
336 341 343 342 338 335 332 328 324 322 320 318 316 313 310 307 305 304 304 303 301 300 299 301 303 304 301 308 316 302 237 190 178 171 168 168 169 171 180 182 178 175 173
347 349 348 345 342 338 336 333 331 327 324 321 318 315 311 307 304 301 297 294 289 286 288 295 302 303 292 294 297 283 189 176 171 169 168 166 164 161 161 160 159 161 165
356 356 353 350 348 345 342 338 333 329 325 322 318 314 310 307 303 298 293 288 282 276 273 280 294 303 286 266 239 175 167 168 167 168 168 166 162 160 158 156 155 158 161
5 3 0 358 354 350 346 341 337 334 331 328 325 321 316 311 305 298 291 286 279 269 262 260 272 296 268 198 165 151 151 160 167 168 169 168 167 164 159 160 158 157 157
15 12 8 3 360 357 353 349 346 344 341 338 335 331 327 323 318 308 297 288 279 266 250 239 237 252 212 176 163 152 144 145 156 163 164 164 166 168 166 162 157 153 153
21 16 11 8 5 3 360 357 354 352 349 347 344 340 335 331 328 327 319 303 286 266 241 221 210 203 185 172 167 160 150 144 148 157 161 161 164 168 168 163 156 151 152
20 15 12 9 8 6 4 0 358 356 354 352 350 346 340 334 328 325 323 318 303 275 238 211 196 185 177 173 173 169 159 151 149 150 153 159 164 164 164 160 157 157 158
18 14 11 9 8 7 6 3 360 358 357 354 351 347 342 337 331 324 317 312 301 279 243 209 193 183 176 172 174 175 171 164 159 155 155 158 162 163 162 161 161 162 165
15 12 9 8 7 7 7 5 3 360 358 356 354 351 349 347 343 338 327 314 293 262 236 210 194 185 178 173 173 177 180 179 177 172 167 165 166 166 165 163 164 168 175
13 10 7 6 6 7 7 7 5 3 1 359 358 356 356 354 353 351 346 332 296 233 217 206 194 187 181 176 175 176 180 183 184 183 180 177 173 172 172 174 177 183 190
10 7 5 5 6 7 8 8 7 6 3 1 1 3 3 2 2 3 4 1 342 195 192 194 192 188 184 179 177 176 178 181 183 183 183 183 183 182 183 186 191 198 200
7 6 6 6 7 8 9 9 9 9 8 7 6 6 7 9 11 14 18 25 47 129 161 174 183 187 186 182 179 177 175 175 176 179 181 184 187 190 193 196 201 204 198
9 9 10 10 11 12 12 12 11 11 11 11 11 11 11 12 16 20 25 36 54 86 120 149 170 180 184 183 180 177 174 172 170 171 175 181 185 189 193 197 197 195 188
14 14 14 14 14 15 15 15 14 14 14 14 15 16 16 17 20 24 30 41 56 73 87 104 146 172 181 184 182 178 175 173 170 168 169 173 177 180 182 183 183 181 178
17 17 17 16 16 16 17 18 17 17 18 18 18 19 21 22 23 25 30 39 53 68 83 94 116 155 174 182 183 179 176 174 173 169 168 168 169 171 171 171 171 172 172
18 19 19 18 18 19 20 21 20 20 21 22 23 24 26 28 29 30 33 40 50 61 82 106 121 139 163 176 181 180 178 175 173 170 167 166 168 170 171 172 173 174 176
19 20 20 19 19 21 22 22 23 24 25 26 27 29 32 35 37 38 41 46 51 60 76 98 118 131 147 164 174 178 178 176 174 171 169 167 166 168 171 174 176 177 177
21 21 20 20 21 22 24 24 25 27 28 30 32 34 37 41 43 44 46 51 56 61 71 86 105 120 133 147 159 168 173 173 173 172 171 170 168 168 170 173 176 179 180
21 20 20 21 22 23 25 27 28 30 32 34 35 38 41 45 48 49 50 53 57 62 69 80 93 106 119 131 142 151 158 162 166 170 172 173 173 172 173 176 179 181 183
Height
5717 5708 5699 5690 5680 5671 5661 5653 5645 5638 5632 5626 5620 5613 5607 5601 5595 5589 5584 5580 5575 5571 5567 5564 5561 5558 5556 5554 5552 5549 5547 5545 5544 5545 5544 5545 5545 5547 5548 5550 5552 5555 5557
5699 5690 5680 5670 5661 5653 5645 5638 5632 5627 5622 5616 5610 5604 5598 5592 5586 5581 5576 5571 5567 5563 5559 5556 5553 5551 5549 5546 5544 5541 5539 5538 5537 5537 5538 5539 5540 5542 5544 5546 5548 5551 5554
5681 5671 5661 5652 5645 5638 5632 5628 5623 5618 5613 5607 5602 5596 5590 5584 5579 5574 5569 5564 5559 5555 5552 5549 5546 5544 5542 5539 5537 5534 5532 5531 5531 5531 5532 5534 5536 5538 5540 5543 5546 5549 5552
5664 5654 5645 5638 5632 5628 5624 5620 5616 5611 5606 5600 5594 5588 5583 5577 5572 5567 5562 5558 5553 5549 5545 5543 5541 5539 5537 5534 5531 5529 5527 5525 5525 5526 5528 5530 5533 5535 5538 5542 5545 5548 5550
5651 5642 5635 5629 5625 5621 5618 5614 5610 5605 5600 5594 5588 5583 5577 5572 5567 5562 5557 5553 5549 5544 5541 5539 5537 5535 5532 5530 5527 5524 5522 5521 5521 5522 5525 5527 5530 5533 5537 5540 5543 5546 5548
5643 5636 5630 5625 5622 5618 5614 5610 5605 5600 5594 5589 5583 5578 5573 5568 5563 5558 5553 5549 5545 5541 5538 5536 5534 5532 5529 5527 5524 5521 5519 5519 5519 5520 5522 5525 5528 5532 5536 5539 5542 5544 5547
5639 5633 5628 5624 5620 5615 5611 5606 5600 5595 5589 5583 5577 5572 5567 5562 5558 5553 5549 5545 5541 5538 5536 5533 5531 5529 5526 5524 5522 5519 5518 5517 5518 5520 5522 5524 5528 5532 5535 5538 5541 5544 5547
5638 5633 5628 5623 5618 5613 5608 5602 5596 5589 5582 5576 5570 5565 5560 5555 5551 5547 5544 5540 5538 5535 5533 5530 5528 5526 5524 5522 5520 5518 5517 5517 5518 5520 5522 5525 5528 5532 5535 5538 5541 5544 5547
5638 5633 5628 5622 5617 5610 5604 5597 5590 5583 5576 5569 5563 5557 5552 5548 5544 5540 5537 5534 5532 5530 5529 5527 5525 5523 5521 5519 5518 5517 5517 5517 5518 5520 5523 5526 5529 5532 5536 5539 5542 5545 5548
5638 5633 5627 5621 5614 5608 5600 5593 5585 5577 5569 5562 5556 5550 5545 5540 5537 5533 5530 5528 5526 5525 5524 5523 5522 5520 5518 5517 5517 5517 5517 5518 5519 5521 5524 5526 5530 5533 5536 5540 5544 5547 5550
5638 5632 5626 5620 5612 5605 5596 5588 5579 5570 5562 5554 5548 5542 5537 5533 5530 5526 5523 5521 5519 5518 5518 5519 5518 5517 5516 5516 5516 5517 5517 5518 5520 5522 5525 5528 5531 5535 5538 5542 5545 5549 5553
5638 5632 5626 5619 5611 5602 5593 5583 5574 5565 5557 5549 5543 5537 5531 5527 5524 5521 5518 5515 5513 5512 5513 5513 5514 5514 5514 5515 5516 5517 5518 5520 5521 5524 5527 5530 5534 5537 5541 5544 5547 5551 5555
5638 5632 5625 5617 5609 5600 5590 5581 5572 5563 5554 5547 5540 5534 5529 5524 5520 5516 5513 5510 5508 5507 5507 5508 5510 5511 5512 5513 5515 5517 5519 5521 5523 5525 5528 5532 5535 5539 5543 5546 5550 5554 5559
5638 5631 5624 5616 5607 5598 5589 5579 5570 5561 5553 5545 5538 5532 5527 5521 5516 5512 5509 5506 5504 5503 5502 5504 5506 5508 5510 5512 5514 5517 5520 5522 5524 5527 5530 5533 5536 5540 5545 5549 5553 5558 5562
5638 5631 5624 5615 5607 5598 5588 5579 5570 5561 5552 5545 5537 5530 5524 5519 5513 5508 5504 5501 5500 5499 5499 5500 5502 5505 5508 5510 5513 5516 5519 5522 5525 5528 5531 5534 5538 5542 5546 5550 5555 5559 5563
5639 5631 5623 5615 5607 5598 5589 5579 5569 5560 5552 5543 5535 5528 5521 5515 5509 5504 5500 5496 5495 5495 5496 5497 5499 5502 5505 5508 5511 5514 5518 5521 5525 5528 5532 5535 5539 5543 5547 5552 5556 5560 5563
5639 5632 5624 5616 5607 5598 5589 5579 5569 5560 5551 5542 5534 5526 5519 5512 5507 5502 5497 5493 5491 5492 5494 5495 5496 5499 5502 5506 5509 5513 5516 5520 5523 5527 5531 5535 5539 5544 5548 5552 5556 5560 5563
5639 5633 5625 5617 5608 5599 5590 5579 5569 5559 5549 5541 5532 5525 5518 5511 5505 5500 5495 5492 5490 5490 5492 5493 5495 5497 5500 5504 5508 5511 5515 5518 5522 5525 5530 5534 5539 5543 5547 5551 5555 5559 5562
5641 5634 5626 5618 5610 5600 5591 5580 5570 5560 5550 5541 5533 5525 5518 5512 5506 5501 5496 5492 5490 5490 5492 5493 5494 5496 5499 5502 5506 5510 5514 5518 5521 5524 5528 5533 5537 5542 5546 5550 5554 5558 5561
5642 5635 5628 5620 5611 5601 5592 5582 5572 5562 5552 5543 5534 5526 5519 5512 5507 5502 5498 5495 5493 5492 5492 5493 5494 5495 5498 5502 5505 5510 5514 5518 5521 5524 5528 5532 5536 5541 5545 5549 5553 5557 5561
5644 5637 5629 5621 5612 5603 5594 5584 5574 5564 5554 5544 5536 5527 5520 5514 5508 5504 5500 5497 5495 5494 5494 5494 5494 5495 5498 5501 5505 5509 5514 5518 5522 5525 5529 5532 5537 5541 5545 5549 5553 5557 5561
5646 5639 5631 5623 5614 5605 5596 5587 5577 5567 5557 5547 5538 5530 5522 5516 5510 5505 5502 5499 5497 5496 5495 5495 5495 5496 5498 5501 5505 5510 5514 5518 5522 5526 5530 5533 5537 5542 5546 5550 5554 5559 5563
5648 5641 5633 5625 5616 5608 5599 5590 5580 5570 5560 5551 5541 5533 5526 5519 5513 5508 5503 5500 5498 5497 5496 5496 5497 5497 5499 5502 5506 5510 5515 5519 5523 5527 5531 5534 5538 5543 5547 5551 5556 5560 5564
5651 5644 5636 5628 5619 5611 5602 5594 5585 5575 5566 5556 5547 5538 5531 5524 5517 5512 5507 5503 5501 5499 5498 5498 5499 5500 5501 5504 5507 5512 5516 5520 5525 5529 5533 5536 5540 5544 5548 5552 5557 5561 5566
5653 5646 5639 5631 5623 5614 5606 5598 5590 5581 5572 5563 5554 5545 5538 5531 5524 5518 5513 5509 5506 5504 5503 5502 5502 5503 5505 5507 5510 5514 5518 5523 5527 5531 5534 5538 5542 5546 5550 5554 5558 5563 5567
5656 5649 5642 5634 5626 5618 5611 5603 5595 5587 5579 5570 5562 5553 5546 5539 5533 5527 5521 5517 5513 5511 5509 5508 5508 5509 5510 5512 5514 5518 5522 5526 5530 5533 5537 5540 5544 5548 5551 5555 5559 5564 5568